QFA167 YMML-NZCH

Flight info

Callsign QFA167
Flight time N/A
Altitude 35000
Route CORRS Y260 ECKHO L508 MOLGI
Aircraft B738/M-SDE2E3FGHIRWXY/LB1

Departure

Time 2026-04-30 15:05
Airport Melbourne Airport (YMML)

Arrival

Time N/A
Airport Christchurch International Airport (NZCH)
Time Latitude Longitude Altitude Speed Heading
2026-04-30 14:45 -37.67370 144.84508 380 ft 0 kts 351°
2026-04-30 14:53 -37.67377 144.84509 380 ft 4 kts 351°
2026-04-30 14:54 -37.67427 144.84519 379 ft 3 kts 352°
2026-04-30 14:54 -37.67464 144.84491 378 ft 4 kts 79°
2026-04-30 14:55 -37.67470 144.84442 377 ft 2 kts 82°
2026-04-30 14:57 -37.67469 144.84450 377 ft 3 kts 82°
2026-04-30 14:57 -37.67470 144.84498 377 ft 1 kts 107°
2026-04-30 14:58 -37.67509 144.84543 377 ft 6 kts 160°
2026-04-30 14:58 -37.67555 144.84552 375 ft 7 kts 172°
2026-04-30 14:58 -37.67669 144.84573 371 ft 10 kts 172°
2026-04-30 14:59 -37.67821 144.84602 366 ft 13 kts 172°
2026-04-30 15:00 -37.68139 144.84661 356 ft 17 kts 171°
2026-04-30 15:00 -37.68357 144.84666 345 ft 16 kts 216°
2026-04-30 15:01 -37.68388 144.84478 349 ft 8 kts 259°
2026-04-30 15:01 -37.68414 144.84418 347 ft 8 kts 229°
2026-04-30 15:01 -37.68504 144.84337 339 ft 9 kts 216°
2026-04-30 15:02 -37.68521 144.84318 340 ft 0 kts 223°
2026-04-30 15:03 -37.68553 144.84236 337 ft 7 kts 259°
2026-04-30 15:03 -37.68563 144.84123 348 ft 6 kts 279°
2026-04-30 15:04 -37.68504 144.84083 354 ft 0 kts 351°
2026-04-30 15:04 -37.68295 144.84046 350 ft 71 kts 352°
2026-04-30 15:05 -37.65023 144.83449 1224 ft 211 kts 352°
2026-04-30 15:06 -37.61709 144.82791 2202 ft 257 kts 352°
2026-04-30 15:06 -37.58271 144.82807 3988 ft 250 kts 19°
2026-04-30 15:07 -37.55071 144.84707 5527 ft 258 kts 25°
2026-04-30 15:07 -37.51800 144.86755 6987 ft 266 kts 24°
2026-04-30 15:08 -37.48446 144.88822 8469 ft 272 kts 26°
2026-04-30 15:08 -37.46028 144.95157 10340 ft 305 kts 97°
2026-04-30 15:09 -37.48321 144.99990 10686 ft 354 kts 141°
2026-04-30 15:09 -37.53123 145.02275 10988 ft 390 kts 181°
2026-04-30 15:10 -37.58599 145.01712 11979 ft 401 kts 185°
2026-04-30 15:11 -37.69872 145.02384 14180 ft 420 kts 155°
2026-04-30 15:11 -37.74119 145.07344 15248 ft 425 kts 117°
2026-04-30 15:12 -37.77696 145.17726 16682 ft 435 kts 111°
2026-04-30 15:13 -37.80084 145.24825 17599 ft 441 kts 112°
2026-04-30 15:14 -37.85038 145.39271 19354 ft 453 kts 112°
2026-04-30 15:14 -37.88833 145.50353 20517 ft 462 kts 112°
2026-04-30 15:16 -37.95460 145.69194 22283 ft 475 kts 115°
2026-04-30 15:17 -38.01358 145.84375 23487 ft 485 kts 115°
2026-04-30 15:18 -38.08758 146.03870 24929 ft 495 kts 114°
2026-04-30 15:19 -38.13221 146.15708 25658 ft 501 kts 114°
2026-04-30 17:39 -43.22379 169.25232 32142 ft 464 kts 100°
2026-04-30 17:41 -43.25884 169.60576 30161 ft 471 kts 99°
2026-04-30 17:42 -43.26751 169.69509 29666 ft 473 kts 99°
2026-04-30 17:42 -43.28045 169.82970 28922 ft 475 kts 99°
2026-04-30 17:43 -43.28904 169.91993 28426 ft 477 kts 99°
2026-04-30 17:44 -43.29810 170.05627 27558 ft 486 kts 80°
2026-04-30 17:44 -43.24724 170.17344 26805 ft 483 kts 62°
2026-04-30 17:46 -43.28486 170.37683 25588 ft 463 kts 125°
2026-04-30 17:47 -43.34093 170.53574 24579 ft 463 kts 111°
2026-04-30 17:48 -43.38319 170.70195 23453 ft 455 kts 110°
2026-04-30 17:48 -43.41413 170.82332 21658 ft 441 kts 110°
2026-04-30 17:49 -43.45401 170.97923 19267 ft 426 kts 110°
2026-04-30 17:50 -43.49250 171.13074 16936 ft 413 kts 109°
2026-04-30 17:51 -43.52005 171.23972 16547 ft 374 kts 109°
2026-04-30 17:52 -43.54580 171.34208 13427 ft 386 kts 109°
2026-04-30 17:53 -43.58737 171.50832 10980 ft 335 kts 109°
2026-04-30 17:54 -43.61690 171.62723 10407 ft 310 kts 109°
2026-04-30 17:55 -43.64223 171.72960 9806 ft 267 kts 108°
2026-04-30 17:56 -43.66715 171.83084 8723 ft 282 kts 108°
2026-04-30 17:57 -43.68599 171.90756 7858 ft 280 kts 108°
2026-04-30 17:58 -43.70449 171.98328 7021 ft 275 kts 108°
2026-04-30 17:59 -43.70092 172.08311 6006 ft 262 kts 74°
2026-04-30 18:00 -43.68209 172.18033 4941 ft 259 kts 74°
2026-04-30 18:00 -43.66869 172.25054 4444 ft 243 kts 74°
2026-04-30 18:01 -43.66024 172.29438 4230 ft 229 kts 73°
2026-04-30 18:02 -43.64335 172.35355 3582 ft 218 kts 39°
2026-04-30 18:02 -43.60860 172.39399 2901 ft 218 kts 39°
2026-04-30 18:03 -43.57471 172.43307 2161 ft 208 kts 39°
2026-04-30 18:04 -43.54386 172.46872 1400 ft 165 kts 39°
2026-04-30 18:05 -43.51302 172.50435 621 ft 139 kts 39°
2026-04-30 18:06 -43.48321 172.53755 577 ft 158 kts 40°